TimeCST,TemperatureF,Dew PointF,Humidity,Sea Level PressureIn,VisibilityMPH,Wind Direction,Wind SpeedMPH,Gust SpeedMPH,PrecipitationIn,Events,Conditions,WindDirDegrees,DateUTC
12:00 AM,66.2,62.6,88,30.03,6.2,ENE,3.5,-,N/A,,Scattered Clouds,60,2013-06-02 06:00:00
1:00 AM,-9999,-9999,N/A,30.02,6.2,ENE,3.5,-,N/A,,Scattered Clouds,70,2013-06-02 07:00:00
2:00 AM,64.4,62.6,94,30.00,6.2,NE,4.6,-,N/A,,Scattered Clouds,50,2013-06-02 08:00:00
3:00 AM,65,61,82,29.87,12,East,3.5,,,,Mostly Cloudy,80,2013-06-02 09:00:00
3:00 AM,64.4,60.8,88,30.00,6.2,East,3.5,-,N/A,,Scattered Clouds,80,2013-06-02 09:00:00
4:00 AM,64.4,60.8,88,30.00,6.2,East,4.6,-,N/A,,Scattered Clouds,90,2013-06-02 10:00:00
5:00 AM,64.4,60.8,88,30.02,6.2,East,3.5,-,N/A,,Mostly Cloudy,90,2013-06-02 11:00:00
6:00 AM,67,61,77,29.88,12,ENE,3.5,,,,Scattered Clouds,60,2013-06-02 12:00:00
6:00 AM,66.2,60.8,83,30.03,6.2,ENE,3.5,-,N/A,,Mostly Cloudy,60,2013-06-02 12:00:00
7:00 AM,73.4,62.6,69,30.05,-9999.0,North,2.3,-,N/A,,Clear,350,2013-06-02 13:00:00
8:00 AM,75.2,62.6,65,30.05,-9999.0,ESE,2.3,-,N/A,,Clear,110,2013-06-02 14:00:00
9:00 AM,78,63,50,29.89,12,SSW,2.3,,,,Scattered Clouds,210,2013-06-02 15:00:00
9:00 AM,77.0,62.6,61,30.05,6.2,SSW,2.3,-,N/A,,Scattered Clouds,210,2013-06-02 15:00:00
10:00 AM,82.4,60.8,48,30.04,6.2,West,3.5,-,N/A,,Scattered Clouds,270,2013-06-02 16:00:00
11:00 AM,82.4,66.2,58,30.02,6.2,West,8.1,-,N/A,,Mostly Cloudy,280,2013-06-02 17:00:00
12:00 PM,82,66,50,29.83,12,SW,9.2,,,,Scattered Clouds,230,2013-06-02 18:00:00
12:00 PM,82.4,66.2,58,30.00,6.2,SW,9.2,-,N/A,,Mostly Cloudy,230,2013-06-02 18:00:00
1:00 PM,82.4,66.2,58,29.99,6.2,WSW,11.5,-,N/A,,Scattered Clouds,250,2013-06-02 19:00:00
2:00 PM,80.6,68.0,65,29.98,6.2,WSW,12.7,-,N/A,,Scattered Clouds,240,2013-06-02 20:00:00
3:00 PM,76,68,69,29.82,12,WSW,11.5,,,,Mostly Cloudy,240,2013-06-02 21:00:00
3:00 PM,78.8,68.0,69,29.96,6.2,WSW,11.5,-,N/A,,Scattered Clouds,250,2013-06-02 21:00:00
4:00 PM,77.0,68.0,74,29.96,6.2,WSW,11.5,-,N/A,,Mostly Cloudy,240,2013-06-02 22:00:00
5:00 PM,71.6,68.0,88,29.97,6.2,SW,5.8,-,N/A,,Mostly Cloudy,230,2013-06-02 23:00:00
6:00 PM,71,68,87,29.82,12,WSW,3.5,,,,Overcast,250,2013-06-03 00:00:00
6:00 PM,71.6,68.0,88,29.98,6.2,WSW,3.5,-,N/A,,Mostly Cloudy,250,2013-06-03 00:00:00
7:00 PM,69.8,68.0,94,30.00,6.2,South,3.5,-,N/A,,Scattered Clouds,190,2013-06-03 01:00:00
8:00 PM,69.8,66.2,88,30.02,6.2,West,2.3,-,N/A,,Scattered Clouds,270,2013-06-03 02:00:00
9:00 PM,69.8,66.2,88,30.01,6.2,Calm,Calm,-,N/A,,Scattered Clouds,0,2013-06-03 03:00:00
10:00 PM,68.0,66.2,94,30.02,6.2,West,4.6,-,N/A,,Scattered Clouds,260,2013-06-03 04:00:00
11:00 PM,68.0,66.2,94,30.00,6.2,East,2.3,-,N/A,,Scattered Clouds,100,2013-06-03 05:00:00